Location: Newark
(50.0306°N, 2.3272°E)
Time: 09:56:44
(UTC+00:00)

ITUPSAT 1 - Visible Passes

Search period start: 19 January 2020 00:00
Search period end: 29 January 2020 00:00
Orbit: 702 x 712 km, 98.6° (Epoch: 19 January)

Date Brightness Start Highest point End Pass type
(mag) Time Alt. Az. Time Alt. Az. Time Alt. Az.
19 Jan ? 05:00:29 10° S 05:01:10 14° S 05:01:10 14° S visible
19 Jan ? 16:56:09 10° NNE 17:00:25 31° E 17:04:39 10° SSE visible
19 Jan ? 18:33:50 10° N 18:38:18 39° WNW 18:42:44 10° SW visible
20 Jan ? 04:06:48 10° SSE 04:07:04 11° SSE 04:07:04 11° SSE visible
20 Jan ? 17:40:04 10° NNE 17:44:54 74° ESE 17:49:41 10° S visible
20 Jan ? 19:18:53 10° NNW 19:22:10 19° WNW 19:25:27 10° W visible
21 Jan ? 04:51:06 10° S 04:51:57 15° S 04:51:57 15° S visible
21 Jan ? 18:24:29 10° N 18:29:06 47° WNW 18:33:40 10° SW visible
22 Jan ? 03:57:41 10° SE 03:57:51 11° SE 03:57:51 11° SE visible
22 Jan ? 05:36:30 10° SSW 05:36:51 12° SW 05:36:51 12° SW visible
22 Jan ? 17:30:51 10° NNE 17:35:38 61° ESE 17:40:21 10° S visible
22 Jan ? 19:09:24 10° N 19:13:02 22° WNW 19:16:39 10° WSW visible
23 Jan ? 04:41:45 10° S 04:42:46 16° S 04:42:46 16° S visible
23 Jan ? 18:15:10 10° N 18:19:53 57° WNW 18:24:33 10° SSW visible
23 Jan ? 19:55:49 10° NW 19:56:42 10° NW 19:57:34 10° WNW visible
24 Jan ? 03:48:36 10° SE 03:48:41 10° SE 03:48:41 10° SE visible
24 Jan ? 05:26:53 10° SSW 05:27:41 14° SSW 05:27:41 14° SSW visible
24 Jan ? 17:21:39 10° NNE 17:26:20 50° E 17:30:58 10° S visible
24 Jan ? 18:59:57 10° N 19:03:52 26° WNW 19:07:46 10° WSW visible
25 Jan ? 04:32:28 10° SSE 04:33:37 17° SSE 04:33:37 17° SSE visible
25 Jan ? 18:05:52 10° N 18:10:39 68° WNW 18:15:24 10° SSW visible
25 Jan ? 19:45:39 10° NNW 19:47:36 12° NW 19:49:31 10° WNW visible
26 Jan ? 05:17:20 10° SSW 05:18:33 17° SSW 05:18:33 17° SSW visible
26 Jan ? 17:12:29 10° NNE 17:17:02 41° E 17:21:33 10° S visible
26 Jan ? 18:50:33 10° N 18:54:42 30° WNW 18:58:50 10° WSW visible
27 Jan ? 04:23:13 10° SSE 04:24:29 18° SSE 04:24:29 18° SSE visible
27 Jan ? 17:56:35 10° NNE 18:01:25 82° WNW 18:06:11 10° SSW visible
27 Jan ? 19:35:55 10° NNW 19:38:29 15° NW 19:41:02 10° W visible
28 Jan ? 05:07:51 10° S 05:09:27 20° SSW 05:09:27 20° SSW visible
28 Jan ? 18:41:10 10° N 18:45:31 35° WNW 18:49:51 10° SW visible
